SL-19 R/B, 36589

Orbit data source: Space-Track

SL-19 R/B, 36589 is space debris in SSO originally from a launch on Wed, 02 Jun 2010 UTC launched from the Plesetsk Missile And Space Complex (PKMTR). Debris objects in space refer to the collection of defunct objects orbiting the Earth. Examples of debris include non-operational satellites, rocket bodies, and fragments generated from explosions, collisions, or faulty payload assembly.

Loading next visibility...
Identifier
36589, 2010-023B
Orbit
SSO
Country
Flag of CISCIS
Related business
Manufacturer
Khrunichev
Mission
Spacecraft
Bus & Motor
BRIZ, S5.92
Mass
2,370 kg wet, 2,370 kg dry
Launch date (UTC)
2010-06-02 (16 years ago)
Launch vehicle
Unknown
Launch site
Plesetsk Missile And Space Complex (PKMTR)
Object type
Payload
Rocket body
Debris
Shape & HBR
Hex Cyl + 1 Rod, 2.0 m
Radar Cross Section
10.190 m², Large (>1 m²)

Expand to show TLE details & history
Last TLE update: 13 hours ago

TLE from 13 hours ago
0 SL-19 R/B
1 36589U 10023B   26125.43498036 -.00000001  00000-0  56768-4 0  9998
2 36589 100.5031  83.0470 0225735  53.8283  53.0549 13.58545772789836
Epoch: 2026-05-05T10:26Z
TLE epoch observation values (Epoch: 2026-05-05T10:26:22.303Z)
Latitude
68.47915°
Longitude
-88.97114°
Altitude
954.508 km
Speed
7.43 km/s
True Right ascension
19h 23m 43s
True Declination
68° 21' 53"
Sunlit
Object was in daylight at epoch
Visualization orbit readout
Latitude
Unknown
Longitude
Unknown
Altitude
Unknown
Speed
Unknown
Apparent Right ascension
Unknown
Apparent Declination
Unknown
Sunlit
N/A
Visualization observer readout
Local Sidereal Time
07:14:54
Azimuth
Unknown
Elevation
Unknown
Doppler factor
Unknown
Orbital elements
Apogee altitude
1,205.728 km
Perigee altitude
870.898 km
Semi-major axis
7,416.45 km
Eccentricity
0.02257
Inclination
100.5031°
RAAN
83.047°
Arg. of periapsis
53.8283°
True anomaly
55.15742°
Mean anomaly
53.0549°
Eccentric anomaly
54.10262°
Mean motion
3.3982 °/min
Orbital period
105.94 mins
BSTAR
0.000056768
Loading maneuver chart data...
Computing Atmospheric mass density...
Loading historical data...
Loading historical data...
Loading historical data...
Loading historical data...
Loading historical data...
Loading historical data...
Loading historical data...
Other satellites on launch #23 in the year 2010 (2010-06-02 UTC)

Documentation

Showing up to 5 results
|